CW5842 Weather Reports


time (UTC)temp
F
wind
direction
speed
knots
gust
knots
rain 1hr
in
rain 24hr
in
rain mn
in
humidity
%
barometer
mb
20260509212522 90 195 0.0 6.1 0.00 0.08 0.08 39 1008.5
20260509212022 90 94 1.7 6.1 0.00 0.08 0.08 39 1008.5
20260509211537 90 103 1.7 6.1 0.00 0.08 0.08 39 1008.7
20260509211023 90 159 1.7 5.2 0.00 0.08 0.08 40 1008.7
20260509210526 90 115 2.6 6.1 0.00 0.08 0.08 38 1008.7
20260509210037 90 161 0.9 6.1 0.00 0.08 0.08 39 1008.9
20260509205523 90 167 0.9 4.3 0.00 0.08 0.08 41 1009.0
20260509205023 90 308 0.9 5.2 0.00 0.08 0.08 41 1009.1
20260509204537 90 128 1.7 7.0 0.00 0.08 0.08 42 1009.3
20260509204022 90 0 2.6 7.0 0.00 0.08 0.08 39 1009.3
20260509203522 90 206 1.7 6.1 0.00 0.08 0.08 41 1009.4
20260509203037 89 154 1.7 6.1 0.00 0.08 0.08 42 1009.4
20260509202520 89 0 1.7 6.1 0.00 0.08 0.08 40 1009.4
20260509202026 90 180 1.7 6.1 0.00 0.08 0.08 43 1009.5
20260509201547 89 154 0.9 6.1 0.00 0.08 0.08 44 1009.5
20260509201022 89 84 2.6 7.0 0.00 0.08 0.08 43 1009.5
20260509200522 89 92 1.7 7.8 0.00 0.08 0.08 42 1009.6
20260509200045 88 247 2.6 7.8 0.00 0.08 0.08 42 1009.7
20260509195525 88 90 2.6 7.0 0.00 0.08 0.08 44 1009.8
20260509195019 88 57 2.6 7.0 0.00 0.08 0.08 43 1009.8
20260509194537 88 61 2.6 7.0 0.00 0.08 0.08 42 1009.8
20260509194020 88 76 3.5 7.8 0.00 0.08 0.08 43 1009.8
20260509193520 88 68 2.6 7.8 0.00 0.08 0.08 43 1009.9
20260509193037 88 51 1.7 7.0 0.00 0.08 0.08 42 1009.9
20260509192520 87 192 2.6 7.0 0.00 0.08 0.08 45 1010.1
20260509192020 87 124 2.6 7.0 0.00 0.08 0.08 45 1010.2
20260509191537 87 88 2.6 7.0 0.00 0.08 0.08 43 1010.2
20260509191024 87 193 2.6 7.8 0.00 0.08 0.08 44 1010.4
20260509190519 87 103 2.6 7.8 0.00 0.08 0.08 43 1010.3
20260509190038 87 77 3.5 7.8 0.00 0.08 0.08 43 1010.4
20260509185521 88 42 2.6 7.8 0.00 0.08 0.08 42 1010.4
20260509185022 88 294 0.9 4.3 0.00 0.08 0.08 45 1010.5
20260509184536 87 281 0.9 7.0 0.00 0.08 0.08 45 1010.5
20260509184020 86 259 0.9 7.0 0.00 0.08 0.08 48 1010.6
20260509183522 86 337 0.9 6.1 0.00 0.08 0.08 47 1010.6
20260509183041 86 48 2.6 6.1 0.00 0.08 0.08 45 1010.7
20260509182520 86 5 1.7 7.0 0.00 0.08 0.08 45 1010.7
20260509182020 87 271 2.6 7.0 0.00 0.08 0.08 45 1010.8
20260509181542 87 261 0.9 4.3 0.00 0.08 0.08 47 1010.8
20260509181020 86 52 0.9 7.0 0.00 0.08 0.08 47 1010.9
20260509180522 86 314 1.7 7.0 0.00 0.08 0.08 47 1011.1
20260509180043 86 289 1.7 7.0 0.00 0.08 0.08 47 1011.2
20260509175520 86 327 2.6 7.0 0.00 0.08 0.08 47 1011.2
20260509175022 86 352 1.7 6.1 0.00 0.08 0.08 49 1011.2
20260509174538 85 309 1.7 6.1 0.00 0.08 0.08 50 1011.2
20260509174021 85 0 0.9 5.2 0.00 0.08 0.08 51 1011.3
20260509173521 84 0 0.9 5.2 0.00 0.08 0.08 51 1011.2
20260509173037 84 90 1.7 4.3 0.00 0.08 0.08 51 1011.4
20260509172523 84 40 0.9 7.0 0.00 0.08 0.08 51 1011.3
20260509172021 84 118 1.7 8.7 0.00 0.08 0.08 51 1011.4
20260509171542 84 17 2.6 8.7 0.00 0.08 0.08 51 1011.3
20260509171022 84 23 0.9 7.0 0.00 0.08 0.08 53 1011.4
20260509170524 84 329 0.9 7.0 0.00 0.08 0.08 51 1011.5
20260509170043 84 317 1.7 5.2 0.00 0.08 0.08 51 1011.5
20260509165522 83 352 0.9 7.0 0.00 0.08 0.08 52 1011.5
20260509165024 83 352 2.6 7.0 0.00 0.08 0.08 52 1011.6
20260509164549 83 31 0.0 7.0 0.00 0.08 0.08 55 1011.7
20260509164022 83 5 1.7 7.0 0.00 0.08 0.08 52 1011.8
20260509163525 83 0 0.9 4.3 0.00 0.08 0.08 52 1011.8
20260509163039 82 321 0.9 5.2 0.00 0.08 0.08 54 1011.7
20260509162520 82 360 1.7 5.2 0.00 0.08 0.08 55 1011.8
20260509162022 82 5 0.9 6.1 0.00 0.08 0.08 57 1011.9
20260509161538 81 0 0.9 6.1 0.00 0.08 0.08 57 1011.7
20260509161019 81 360 1.7 6.1 0.00 0.08 0.08 56 1011.8
20260509160520 81 62 0.9 3.5 0.00 0.08 0.08 55 1011.8
20260509160038 80 298 0.9 2.6 0.00 0.08 0.08 58 1011.9
20260509155517 80 0 1.7 3.5 0.00 0.08 0.08 57 1011.8
20260509155017 79 321 0.9 5.2 0.00 0.08 0.08 60 1011.9
20260509154542 79 238 1.7 5.2 0.00 0.08 0.08 58 1011.8
20260509154023 79 249 0.0 3.5 0.00 0.08 0.08 60 1011.9
20260509153520 79 25 0.0 4.3 0.00 0.08 0.08 62 1011.8
20260509153036 78 0 0.9 4.3 0.00 0.08 0.08 62 1011.9
20260509152520 78 360 0.9 2.6 0.00 0.08 0.08 63 1012.0
20260509152019 78 302 0.0 2.6 0.00 0.08 0.08 62 1012.0
20260509151538 79 0 0.0 3.5 0.00 0.08 0.08 62 1012.0
20260509151019 79 323 0.9 3.5 0.00 0.08 0.08 63 1011.9
20260509150519 79 5 0.9 3.5 0.00 0.08 0.08 63 1011.9
20260509150042 78 299 0.9 3.5 0.00 0.08 0.08 62 1012.0
20260509145520 78 15 0.9 4.3 0.00 0.08 0.08 64 1012.0
20260509145018 77 333 0.9 4.3 0.00 0.08 0.08 63 1012.1
20260509144537 77 5 0.9 6.1 0.00 0.08 0.08 64 1012.1
20260509144023 76 11 0.9 6.1 0.00 0.08 0.08 66 1012.2
20260509143519 76 267 1.7 6.1 0.00 0.08 0.08 66 1012.1
20260509143038 76 320 0.9 4.3 0.00 0.08 0.08 69 1012.0
20260509142519 75 287 0.9 5.2 0.00 0.08 0.08 69 1012.1
20260509142019 75 350 1.7 6.1 0.00 0.08 0.08 69 1012.0
20260509141537 75 311 1.7 6.1 0.00 0.08 0.08 71 1012.0
20260509141019 74 23 0.9 6.1 0.00 0.08 0.08 73 1012.0
20260509140517 73 332 0.9 7.8 0.00 0.08 0.08 73 1011.9
20260509140037 72 310 1.7 7.8 0.00 0.08 0.08 74 1011.9
20260509135522 72 0 0.9 6.1 0.00 0.08 0.08 75 1011.9
20260509135021 72 334 1.7 6.1 0.00 0.08 0.08 74 1011.9
20260509134558 72 352 0.9 4.3 0.00 0.08 0.08 75 1011.9
20260509134019 72 323 0.9 6.1 0.00 0.08 0.08 75 1011.8
20260509133519 71 0 0.9 7.0 0.00 0.08 0.08 76 1011.6
20260509133037 71 0 0.9 7.0 0.00 0.08 0.08 76 1011.6
20260509132519 71 0 1.7 6.1 0.00 0.08 0.08 76 1011.6
20260509132017 71 0 0.9 5.2 0.00 0.08 0.08 77 1011.5
20260509131548 71 319 1.7 5.2 0.00 0.08 0.08 78 1011.3
20260509131018 71 0 0.9 3.5 0.00 0.08 0.08 78 1011.2
20260509130519 70 342 0.0 6.1 0.00 0.08 0.08 80 1011.1
20260509130040 70 10 0.9 6.1 0.00 0.08 0.08 80 1010.9
20260509125519 69 0 0.9 5.2 0.00 0.08 0.08 80 1010.8
20260509125017 69 325 0.9 3.5 0.00 0.08 0.08 80 1010.9
20260509124537 69 306 0.9 2.6 0.00 0.08 0.08 80 1010.8
20260509124020 69 9 0.9 2.6 0.00 0.08 0.08 80 1010.7
20260509123520 69 13 0.9 6.1 0.00 0.08 0.08 80 1010.6
20260509123037 69 0 0.9 6.1 0.00 0.08 0.08 80 1010.6
20260509122517 69 23 1.7 6.1 0.00 0.08 0.08 80 1010.5
20260509122020 68 15 0.9 5.2 0.00 0.08 0.08 81 1010.6
20260509121538 68 5 0.9 5.2 0.00 0.08 0.08 81 1010.4
20260509121017 67 5 0.9 3.5 0.00 0.08 0.08 81 1010.4
20260509120520 67 9 0.9 3.5 0.00 0.08 0.08 81 1010.4
20260509120038 67 315 0.9 4.3 0.00 0.08 0.08 81 1010.4
20260509115519 67 352 0.9 4.3 0.00 0.08 0.08 81 1010.5
20260509115022 67 321 0.9 3.5 0.00 0.08 0.08 81 1010.5
20260509114542 67 352 1.7 3.5 0.00 0.08 0.08 81 1010.4
20260509114018 67 25 0.9 4.3 0.00 0.08 0.08 81 1010.5
20260509113522 67 352 0.9 5.2 0.00 0.08 0.08 81 1010.6
20260509113039 68 337 0.9 5.2 0.00 0.08 0.08 81 1010.7
20260509112519 68 343 1.7 5.2 0.00 0.08 0.08 80 1010.6
20260509112017 68 5 0.9 3.5 0.00 0.08 0.08 80 1010.7
20260509111533 68 352 0.0 3.5 0.00 0.08 0.08 80 1010.6
20260509111018 69 313 0.9 4.3 0.00 0.08 0.08 80 1010.6
20260509110517 69 352 0.9 4.3 0.00 0.08 0.08 80 1010.6
20260509110036 69 287 1.7 7.0 0.00 0.08 0.08 80 1010.4
20260509105518 69 346 0.9 7.0 0.00 0.08 0.08 80 1010.4
20260509105017 69 11 1.7 7.0 0.00 0.08 0.08 80 1010.4
20260509104539 69 275 0.9 6.1 0.00 0.08 0.08 80 1010.6
20260509104018 69 92 1.7 6.1 0.00 0.08 0.08 81 1010.5
20260509103519 69 0 0.9 4.3 0.00 0.08 0.08 80 1010.3
20260509103037 69 252 0.0 4.3 0.00 0.08 0.08 80 1009.8
20260509102518 69 321 0.9 3.5 0.00 0.08 0.08 80 1009.9
20260509102024 69 281 0.0 5.2 0.00 0.08 0.08 80 1009.5
20260509101548 69 278 1.7 6.1 0.00 0.08 0.08 80 1009.3
20260509101020 69 171 0.9 6.1 0.00 0.08 0.08 80 1008.8
20260509100517 69 215 1.7 4.3 0.00 0.08 0.08 80 1008.6
20260509100037 70 106 1.7 3.5 0.00 0.08 0.08 79 1008.0
20260509095519 70 105 0.9 6.1 0.00 0.08 0.08 79 1007.8
20260509095018 70 224 1.7 6.1 0.00 0.08 0.08 79 1007.7
20260509094537 71 294 1.7 18.2 0.00 0.08 0.08 78 1007.8
20260509094019 71 232 5.2 20.9 0.00 0.08 0.08 79 1007.7
20260509093519 69 167 9.6 20.9 0.00 0.08 0.08 80 1007.9
20260509093038 68 156 6.1 16.5 0.00 0.08 0.08 76 1008.7
20260509092518 69 327 2.6 9.6 0.00 0.08 0.08 76 1008.3
20260509092021 69 158 3.5 9.6 0.00 0.08 0.08 76 1007.4
20260509091537 69 148 2.6 7.8 0.00 0.08 0.08 76 1007.9
20260509091018 69 159 3.5 7.0 0.00 0.08 0.08 76 1008.7
20260509090523 69 213 1.7 6.1 0.00 0.08 0.08 76 1009.3
20260509090037 69 162 1.7 3.5 0.00 0.08 0.08 76 1009.4
20260509085522 68 223 0.9 3.5 0.00 0.08 0.08 76 1009.6
20260509085017 68 0 0.0 3.5 0.00 0.08 0.08 76 1009.6
20260509084537 68 0 0.0 4.3 0.00 0.08 0.08 76 1009.9
20260509084019 68 182 0.0 5.2 0.01 0.08 0.08 76 1009.8
20260509083519 68 169 1.7 5.2 0.03 0.08 0.08 76 1010.0
20260509083042 68 0 2.6 7.0 0.05 0.08 0.08 76 1010.2
20260509082519 68 163 2.6 7.0 0.06 0.08 0.08 77 1010.2
20260509082020 68 171 2.6 6.1 0.07 0.08 0.08 77 1010.3
20260509081537 68 221 1.7 5.2 0.08 0.08 0.08 77 1010.5
20260509081019 68 234 2.6 5.2 0.08 0.08 0.08 77 1010.4
20260509080519 68 163 0.9 6.1 0.08 0.08 0.08 77 1010.4
20260509080039 68 137 1.7 6.1 0.08 0.08 0.08 77 1010.6
20260509075518 68 119 2.6 7.0 0.08 0.08 0.08 78 1011.1
20260509075018 68 129 2.6 7.0 0.08 0.08 0.08 78 1011.6
20260509074546 69 149 0.0 2.6 0.07 0.07 0.07 79 1011.9
20260509074018 69 0 0.9 1.7 0.06 0.06 0.06 79 1012.1
20260509073518 69 0 0.0 1.7 0.05 0.05 0.05 79 1012.4
20260509073037 69 0 0.0 2.6 0.03 0.03 0.03 80 1012.7
20260509072520 69 76 0.9 4.3 0.02 0.02 0.02 80 1012.7
20260509072023 69 82 1.7 4.3 0.00 0.00 0.00 79 1012.8
20260509071537 69 313 0.9 7.0 0.00 0.00 0.00 79 1012.7
20260509071020 69 10 0.9 7.0 0.00 0.00 0.00 78 1013.0
20260509070521 68 360 1.7 8.7 0.00 0.00 0.00 78 1013.0
20260509070040 68 360 2.6 8.7 0.00 0.00 0.00 77 1012.9
20260509065518 68 360 1.7 8.7 0.00 0.00 0.00 77 1012.9
20260509065018 68 360 0.9 4.3 0.00 0.00 0.00 77 1012.7
20260509064552 67 0 0.0 4.3 0.00 0.00 0.00 77 1012.2
20260509064021 67 360 0.9 3.5 0.00 0.00 0.00 78 1012.3
20260509063517 67 360 0.9 3.5 0.00 0.00 0.00 78 1011.9
20260509063043 67 360 0.0 2.6 0.00 0.00 0.00 79 1012.1
20260509062518 66 360 0.0 1.7 0.00 0.00 0.00 79 1011.6
20260509062018 67 0 0.0 0.0 0.00 0.00 0.00 80 1011.7
20260509061542 67 0 0.0 0.0 0.00 0.00 0.00 80 1011.1
20260509061017 67 0 0.0 0.0 0.00 0.00 0.00 80 1011.0
20260509060519 68 0 0.0 0.0 0.00 0.00 0.00 79 1011.1
20260509060038 68 0 0.0 0.0 0.00 0.00 0.00 80 1011.1
20260509055518 68 0 0.0 0.0 0.00 0.00 0.00 80 1011.1
20260509055019 68 0 0.0 0.0 0.00 0.00 0.00 79 1011.2
20260509054537 68 0 0.0 0.9 0.00 0.00 0.00 79 1011.2
20260509054017 68 0 0.0 1.7 0.00 0.00 0.00 79 1011.2
20260509053518 68 0 0.0 3.5 0.00 0.00 0.00 79 1011.1
20260509053036 68 360 1.7 3.5 0.00 0.00 0.00 79 1011.3
20260509052518 68 0 0.9 3.5 0.00 0.00 0.00 79 1011.3
20260509052017 68 0 0.9 1.7 0.00 0.00 0.00 80 1011.2
20260509051538 68 0 0.0 1.7 0.00 0.00 0.00 80 1011.0
20260509051018 68 0 0.0 2.6 0.00 0.00 0.00 80 1010.8
20260509050522 68 0 0.0 2.6 0.00 0.00 0.00 80 1010.8
20260509050039 68 0 0.0 0.0 0.00 0.00 0.00 80 1010.8
20260509045522 68 0 0.0 0.0 0.00 0.00 0.00 80 1010.6
20260509045017 68 0 0.0 0.0 0.00 0.00 0.00 81 1010.3
20260509044537 68 0 0.0 0.0 0.00 0.00 0.00 81 1010.3
20260509044019 69 0 0.0 0.0 0.00 0.00 0.00 81 1010.3
20260509043522 69 0 0.0 0.0 0.00 0.00 0.00 80 1010.3
20260509043041 69 0 0.0 1.7 0.00 0.00 0.00 80 1010.4
20260509042517 69 0 0.0 1.7 0.00 0.00 0.00 81 1010.5
20260509042018 69 360 0.0 1.7 0.00 0.00 0.00 80 1010.4
20260509041538 70 0 0.9 1.7 0.00 0.00 0.00 80 1010.3
20260509041020 70 169 0.0 1.7 0.00 0.00 0.00 80 1010.3
20260509040520 70 0 0.0 1.7 0.00 0.00 0.00 80 1010.4
20260509040041 70 0 0.0 3.5 0.00 0.00 0.00 80 1010.4
20260509035542 70 360 0.9 3.5 0.00 0.00 0.00 80 1010.3
20260509035021 70 0 0.0 3.5 0.00 0.00 0.00 80 1010.3
20260509034548 71 360 0.0 3.5 0.00 0.00 0.00 80 1010.4
20260509034026 71 360 0.0 2.6 0.00 0.00 0.00 80 1010.4
20260509033520 71 0 0.0 1.7 0.00 0.00 0.00 80 1010.6
20260509033044 71 360 0.0 3.5 0.00 0.00 0.00 80 1010.6
20260509032521 71 0 0.0 3.5 0.00 0.00 0.00 80 1010.5
20260509032023 71 360 1.7 3.5 0.00 0.00 0.00 80 1010.4
20260509031543 71 360 0.9 3.5 0.00 0.00 0.00 80 1010.4
20260509031022 71 0 0.0 2.6 0.00 0.00 0.00 80 1010.4
20260509030522 71 0 0.0 3.5 0.00 0.00 0.00 80 1010.4
20260509030037 71 0 0.0 3.5 0.00 0.00 0.00 80 1010.2
20260509025522 71 183 1.7 3.5 0.00 0.00 0.00 80 1010.0
20260509025022 71 190 0.9 3.5 0.00 0.00 0.00 79 1009.9
20260509024539 71 184 0.9 3.5 0.00 0.00 0.00 79 1009.9
20260509024022 72 360 0.0 2.6 0.00 0.00 0.00 79 1009.8
20260509023523 72 0 0.0 3.5 0.00 0.00 0.00 79 1009.8
20260509023037 72 360 1.7 3.5 0.00 0.00 0.00 79 1009.7
20260509022522 72 360 0.0 1.7 0.00 0.00 0.00 78 1009.8
20260509022023 72 0 0.0 0.9 0.00 0.00 0.00 78 1009.7
20260509021537 72 0 0.0 0.9 0.00 0.00 0.00 78 1009.7
20260509021022 73 360 0.0 0.9 0.00 0.00 0.00 78 1009.6
20260509020522 73 0 0.0 0.9 0.00 0.00 0.00 77 1009.6
20260509020033 73 0 0.0 1.7 0.00 0.00 0.00 77 1009.6
20260509015522 73 0 0.0 1.7 0.00 0.00 0.00 77 1009.5
20260509015020 73 190 0.0 2.6 0.00 0.00 0.00 76 1009.5
20260509014540 74 0 0.0 2.6 0.00 0.00 0.00 76 1009.5
20260509014019 74 149 0.0 0.9 0.00 0.00 0.00 76 1009.5
20260509013526 74 0 0.0 2.6 0.00 0.00 0.00 76 1009.4
20260509013051 74 0 0.0 2.6 0.00 0.00 0.00 76 1009.3
20260509012521 74 184 0.0 3.5 0.00 0.00 0.00 76 1009.2
20260509012021 74 0 0.0 4.3 0.00 0.00 0.00 76 1009.2
20260509011539 74 0 0.0 4.3 0.00 0.00 0.00 75 1009.1
20260509011020 74 165 1.7 4.3 0.00 0.00 0.00 75 1009.0
20260509010523 75 174 0.0 3.5 0.00 0.00 0.00 75 1008.9
20260509010039 75 149 0.0 5.2 0.00 0.00 0.00 75 1008.9
20260509005523 75 165 1.7 5.2 0.00 0.00 0.00 74 1008.9
20260509005022 75 177 0.9 4.3 0.00 0.00 0.00 74 1008.9
20260509004541 75 138 0.9 4.3 0.00 0.00 0.00 74 1008.8
20260509004021 75 202 0.9 4.3 0.00 0.00 0.00 74 1008.8
20260509003521 76 165 0.9 4.3 0.00 0.00 0.00 73 1008.7
20260509003037 76 173 0.0 3.5 0.00 0.00 0.00 74 1008.6
20260509002518 76 0 0.9 4.3 0.00 0.00 0.00 73 1008.6
20260509002019 76 0 0.9 4.3 0.00 0.00 0.00 73 1008.7
20260509001543 76 143 0.9 5.2 0.00 0.00 0.00 73 1008.7
20260509001017 76 195 1.7 7.8 0.00 0.00 0.00 73 1008.6
20260509000518 76 213 1.7 8.7 0.00 0.00 0.00 72 1008.7
20260509000038 76 211 2.6 8.7 0.00 0.00 0.00 72 1008.6
20260508235523 77 207 2.6 7.0 0.00 0.00 0.00 71 1008.5
20260508235021 77 175 2.6 7.8 0.00 0.00 0.00 71 1008.5
20260508234541 77 135 2.6 7.8 0.00 0.00 0.00 71 1008.6
20260508234018 77 170 2.6 7.8 0.00 0.00 0.00 71 1008.6
20260508233522 77 175 3.5 7.8 0.00 0.00 0.00 71 1008.5
20260508233037 77 157 1.7 8.7 0.00 0.00 0.00 71 1008.7
20260508232517 77 178 1.7 8.7 0.00 0.00 0.00 71 1008.6
20260508232021 77 165 2.6 7.8 0.00 0.00 0.00 71 1008.5
20260508231537 77 161 3.5 7.8 0.00 0.00 0.00 71 1008.5
20260508231023 77 169 2.6 7.8 0.00 0.00 0.00 71 1008.6
20260508230521 77 190 2.6 7.8 0.00 0.00 0.00 71 1008.6
20260508230039 77 89 0.9 5.2 0.00 0.00 0.00 71 1008.6
20260508225521 77 97 1.7 6.1 0.00 0.00 0.00 71 1008.6
20260508225021 77 126 1.7 6.1 0.00 0.00 0.00 71 1008.8
20260508224548 77 138 1.7 6.1 0.00 0.00 0.00 71 1008.8
20260508224021 77 171 1.7 5.2 0.00 0.00 0.00 71 1008.8
20260508223521 77 174 2.6 7.0 0.00 0.00 0.00 71 1008.7
20260508223047 76 153 1.7 7.0 0.00 0.00 0.00 71 1008.8
20260508222520 76 150 1.7 6.1 0.00 0.00 0.00 71 1008.9
20260508222021 76 153 2.6 6.1 0.00 0.00 0.00 70 1008.9
20260508221538 76 200 2.6 5.2 0.00 0.00 0.00 70 1009.0
20260508221018 76 171 0.0 7.0 0.00 0.00 0.00 70 1009.1
20260508220518 76 118 2.6 7.0 0.00 0.00 0.00 70 1009.2
20260508220037 77 124 1.7 7.0 0.00 0.00 0.00 69 1009.2
20260508215517 77 153 1.7 7.0 0.00 0.00 0.00 70 1009.1
20260508215018 76 108 1.7 7.8 0.00 0.00 0.00 70 1009.1
20260508214553 76 101 2.6 12.2 0.00 0.00 0.00 70 1009.1
20260508214022 76 130 3.5 12.2 0.00 0.00 0.00 71 1009.2
20260508213518 76 126 3.5 10.4 0.00 0.00 0.00 70 1009.2
20260508213036 76 80 6.1 10.4 0.00 0.00 0.00 70 1009.3